Date String (YYYY-MM-DD hh:mm:ss) UTC,Instrument flags,Ambient pressure (hPa),Sample flow (lpm),Bypass flow (lpm),Sample temperature (°C),Ambient temperature (°C),ASC tube jacket temperature (°C),LED temperature (°C),Box temperature (°C),Sample RH (%),Span deviation,Mass concentration (μg/m³),Mass concentration (μg/m³),Mass concentration (μg/m³)
DateTimeUTC,F1_M11,P_M11,Q1_M11,Q2_M11,T1_M11,T2_M11,T3_M11,T4_M11,T5_M11,U1_M11,ZSPAN_M11,X0_M11,X2_M11,X1_M11
2022-04-17 08:00:00,,0821.3,5.01,0.00,26.4,25.5,00.0,35.4,28.2,10.9,0001.7,0021.94,0007.13,0004.61
2022-04-17 08:01:00,,0821.2,4.99,0.00,26.4,25.5,00.0,35.4,28.2,10.9,0000.0,0021.18,0007.13,0004.61
2022-04-17 08:02:00,,0821.1,5.00,0.00,26.4,25.5,00.0,35.3,28.2,10.8,0000.6,0020.66,0007.16,0004.61
2022-04-17 08:03:00,,0821.1,5.00,0.00,26.4,25.5,00.0,35.3,28.2,10.8,0003.3,0021.62,0007.23,0004.60
2022-04-17 08:04:00,,0821.1,5.00,0.00,26.4,25.5,00.0,35.3,28.2,10.8,0000.7,0022.89,0007.26,0004.60
2022-04-17 08:05:00,,0821.1,5.01,0.00,26.4,25.5,00.0,35.3,28.2,10.9,0000.0,0023.46,0007.30,0004.60
2022-04-17 08:06:00,,0821.1,4.99,0.00,26.4,25.5,00.0,35.3,28.2,11.0,0000.0,0024.16,0007.41,0004.60
2022-04-17 08:07:00,,0821.2,5.00,0.00,26.4,25.5,00.0,35.3,28.2,11.1,0000.0,0024.40,0007.33,0004.59
2022-04-17 08:08:00,,0821.3,5.01,0.00,26.4,25.5,00.0,35.3,28.2,11.2,0000.0,0025.72,0007.33,0004.59
2022-04-17 08:09:00,,0821.3,5.01,0.00,26.4,25.5,00.0,35.3,28.2,11.3,0000.0,0025.06,0007.36,0004.59
2022-04-17 08:10:00,,0821.2,4.99,0.00,26.4,25.5,00.0,35.3,28.2,11.4,0000.0,0024.13,0007.41,0004.57
2022-04-17 08:11:00,,0821.2,5.00,0.00,26.4,25.5,00.0,35.3,28.2,11.3,0000.0,0024.23,0007.45,0004.57
2022-04-17 08:12:00,,0821.2,5.01,0.00,26.4,25.5,00.0,35.3,28.2,11.3,0000.0,0025.24,0007.47,0004.56
2022-04-17 08:13:00,,0821.2,4.99,0.00,26.3,25.4,00.0,35.3,28.1,11.4,0000.0,0025.74,0007.45,0004.55
2022-04-17 08:14:00,,0821.3,5.01,0.00,26.3,25.4,00.0,35.3,28.1,11.4,0000.0,0024.45,0007.41,0004.55
2022-04-17 08:15:00,,0821.3,5.00,0.00,26.3,25.4,00.0,35.3,28.1,11.5,0000.0,0024.13,0007.49,0004.54
2022-04-17 08:16:00,,0821.4,4.99,0.00,26.3,25.4,00.0,35.3,28.1,11.5,0000.0,0023.70,0007.48,0004.52
2022-04-17 08:17:00,,0821.4,4.99,0.00,26.3,25.4,00.0,35.3,28.1,11.5,0000.0,0023.89,0007.40,0004.49
2022-04-17 08:18:00,,0821.4,5.01,0.00,26.3,25.4,00.0,35.3,28.1,11.5,0000.0,0023.80,0007.36,0004.47
2022-04-17 08:19:00,,0821.4,5.00,0.00,26.3,25.4,00.0,35.3,28.1,11.5,0000.0,0023.04,0007.34,0004.45
2022-04-17 08:20:00,,0821.4,4.99,0.00,26.3,25.4,00.0,35.2,28.1,11.5,0000.0,0024.52,0007.36,0004.45
2022-04-17 08:21:00,,0821.4,5.00,0.00,26.3,25.4,00.0,35.2,28.1,11.3,0000.0,0026.26,0007.27,0004.46
2022-04-17 08:22:00,,0821.4,5.00,0.00,26.3,25.4,00.0,35.2,28.1,11.2,0000.0,0026.57,0007.32,0004.45
2022-04-17 08:23:00,,0821.4,4.99,0.00,26.3,25.4,00.0,35.2,28.1,11.2,0000.0,0026.68,0007.31,0004.44
2022-04-17 08:24:00,,0821.3,5.01,0.00,26.3,25.4,00.0,35.2,28.1,11.3,0000.0,0027.24,0007.28,0004.42
2022-04-17 08:25:00,,0821.3,5.01,0.00,26.3,25.4,00.0,35.2,28.1,11.3,0000.0,0027.93,0007.23,0004.41
2022-04-17 08:26:00,,0821.4,5.00,0.00,26.3,25.4,00.0,35.2,28.1,11.3,0000.0,0029.12,0007.17,0004.40
2022-04-17 08:27:00,,0821.4,4.99,0.00,26.3,25.4,00.0,35.2,28.1,11.5,0000.0,0029.19,0007.18,0004.39
2022-04-17 08:28:00,,0821.4,4.99,0.00,26.3,25.4,00.0,35.2,28.1,11.4,0000.0,0029.61,0007.24,0004.40
2022-04-17 08:29:00,,0821.4,5.02,0.00,26.3,25.4,00.0,35.2,28.1,11.4,0000.0,0029.45,0007.22,0004.39
2022-04-17 08:30:00,,0821.3,5.00,0.00,26.3,25.4,00.0,35.2,28.1,11.4,0000.0,0029.95,0007.26,0004.40
2022-04-17 08:31:00,,0821.3,5.01,0.00,26.2,25.3,00.0,35.2,28.0,11.5,0000.0,0029.10,0007.21,0004.39
2022-04-17 08:32:00,,0821.3,5.01,0.00,26.2,25.2,00.0,35.2,27.9,11.6,0000.0,0027.09,0007.29,0004.37
2022-04-17 08:33:00,,0821.3,4.99,0.00,26.2,25.2,00.0,35.2,27.9,11.6,0000.0,0027.24,0007.28,0004.37
2022-04-17 08:34:00,,0821.3,4.99,0.00,26.2,25.2,00.0,35.2,28.0,11.6,0000.0,0027.12,0007.16,0004.36
2022-04-17 08:35:00,,0821.4,5.01,0.00,26.2,25.2,00.0,35.2,28.0,11.5,0000.0,0027.82,0007.23,0004.38
2022-04-17 08:36:00,,0821.4,5.01,0.00,26.2,25.2,00.0,35.2,28.0,11.5,0000.0,0027.58,0007.33,0004.39
2022-04-17 08:37:00,,0821.4,5.00,0.00,26.2,25.2,00.0,35.1,28.0,11.4,0000.0,0027.40,0007.31,0004.39
2022-04-17 08:38:00,,0821.3,4.99,0.00,26.2,25.2,00.0,35.1,28.0,11.4,0000.0,0029.63,0007.29,0004.41
2022-04-17 08:39:00,,0821.4,5.01,0.00,26.2,25.3,00.0,35.1,28.0,11.5,0000.0,0028.68,0007.20,0004.40
2022-04-17 08:40:00,,0821.4,4.99,0.00,26.2,25.3,00.0,35.1,28.0,11.5,0000.0,0028.22,0007.22,0004.40
2022-04-17 08:41:00,,0821.6,5.00,0.00,26.2,25.3,00.0,35.1,28.0,11.5,0000.0,0027.76,0007.19,0004.40
2022-04-17 08:42:00,,0821.4,5.00,0.00,26.2,25.3,00.0,35.1,28.0,11.5,0000.0,0028.31,0007.19,0004.39
2022-04-17 08:43:00,,0821.4,4.99,0.00,26.2,25.3,00.0,35.1,28.0,11.5,0000.0,0029.47,0007.14,0004.39
2022-04-17 08:44:00,,0821.4,5.00,0.00,26.2,25.3,00.0,35.1,28.0,11.5,0000.0,0030.34,0007.15,0004.39
2022-04-17 08:45:00,,0821.4,5.02,0.00,26.2,25.3,00.0,35.1,28.0,11.5,0000.0,0030.34,0007.26,0004.39
2022-04-17 08:46:00,,0821.4,4.99,0.00,26.2,25.3,00.0,35.1,28.0,11.6,0000.0,0029.40,0007.23,0004.38
2022-04-17 08:47:00,,0821.4,4.99,0.00,26.2,25.3,00.0,35.1,28.0,11.8,0000.0,0029.75,0007.27,0004.36
2022-04-17 08:48:00,,0821.4,5.02,0.00,26.2,25.3,00.0,35.1,28.0,11.9,0000.0,0029.25,0007.33,0004.35
2022-04-17 08:49:00,,0821.4,5.00,0.00,26.2,25.2,00.0,35.1,28.0,12.0,0000.0,0027.78,0007.35,0004.33
2022-04-17 08:50:00,,0821.5,5.00,0.00,26.2,25.2,00.0,35.1,28.0,12.0,0000.8,0026.18,0007.32,0004.30
2022-04-17 08:51:00,,0821.7,5.02,0.00,26.2,25.2,00.0,35.1,28.0,12.0,0003.1,0027.45,0007.28,0004.28
2022-04-17 08:52:00,,0821.6,4.99,0.00,26.2,25.2,00.0,35.1,28.0,12.0,0005.6,0027.67,0007.29,0004.27
2022-04-17 08:53:00,,0821.5,5.00,0.00,26.2,25.2,00.0,35.1,28.0,12.1,0005.6,0027.90,0007.30,0004.26
2022-04-17 08:54:00,,0821.4,5.01,0.00,26.2,25.2,00.0,35.1,28.0,12.2,0005.3,0027.52,0007.25,0004.24
2022-04-17 08:55:00,,0821.5,4.99,0.00,26.2,25.2,00.0,35.1,28.0,12.3,0004.7,0026.52,0007.27,0004.22
2022-04-17 08:56:00,,0821.7,4.99,0.00,26.2,25.2,00.0,35.1,28.0,12.3,0004.0,0025.59,0007.24,0004.20
2022-04-17 08:57:00,,0821.7,5.01,0.00,26.2,25.2,00.0,35.1,28.0,12.2,0003.7,0024.61,0007.18,0004.17
2022-04-17 08:58:00,,0821.7,5.01,0.00,26.2,25.2,00.0,35.1,27.9,12.2,0003.0,0024.34,0007.15,0004.15
2022-04-17 08:59:00,,0821.6,4.99,0.00,26.1,25.2,00.0,35.1,28.0,12.3,0003.1,0023.22,0007.05,0004.14
